Temp
10 10 10 10 10 11 11 10 10 11 11 11 12 12 12 12 13 14 15 17 16 16 15 16 16 17 17 17 18 18 14 13 16 17 19 20 20 22 22 23 24 24 25 27 25
10 10 10 10 10 10 11 10 11 11 11 11 12 12 13 13 14 16 16 17 16 16 16 16 16 17 17 17 18 16 12 15 17 19 18 19 20 21 22 22 22 24 25 27 25
10 10 11 11 11 11 11 11 11 11 12 12 12 12 13 14 14 17 17 17 16 16 16 15 16 16 16 17 17 16 15 15 17 19 20 19 20 21 21 20 22 24 25 26 24
11 11 11 11 11 11 12 11 11 11 12 12 12 13 13 13 15 17 17 17 16 16 16 16 16 16 15 16 18 16 17 18 19 19 19 18 21 21 21 22 23 24 24 25 26
11 11 11 12 12 12 12 12 12 12 12 12 12 13 13 13 17 17 17 17 17 16 16 16 16 17 16 15 17 16 16 18 19 19 19 20 19 19 20 21 23 23 24 24 25
11 11 12 12 12 12 12 12 12 12 12 12 12 12 13 11 17 17 17 17 17 17 16 17 17 17 16 16 16 17 17 17 19 19 19 18 19 20 21 22 23 24 24 24 24
12 12 12 13 12 12 12 12 12 12 12 12 12 12 12 16 16 17 17 16 16 17 17 17 17 17 17 16 17 17 16 15 17 19 18 19 17 18 21 23 24 24 25 25 23
12 12 12 13 13 12 12 12 12 12 12 12 12 12 14 16 16 17 16 17 17 17 17 18 17 18 18 17 16 14 14 14 16 18 19 19 17 18 22 21 23 23 24 25 25
12 13 13 13 13 13 13 13 12 12 12 12 12 11 14 16 17 17 17 17 17 17 18 18 17 18 17 13 11 11 12 13 14 16 17 18 16 18 21 21 19 20 22 24 25
12 13 13 13 13 13 13 13 13 12 12 11 11 11 16 17 17 18 17 17 17 17 18 17 17 13 10 11 11 12 13 13 13 15 17 16 16 16 19 19 19 20 20 23 24
12 13 13 13 14 14 14 14 13 12 12 13 14 15 16 17 17 18 18 17 17 17 15 15 13 12 12 12 14 13 13 13 15 16 16 15 16 15 17 18 19 20 19 21 23
13 12 13 13 14 14 14 14 13 12 11 14 15 14 15 15 15 18 18 17 17 14 15 13 12 13 14 14 14 13 13 13 15 16 14 14 14 16 16 17 19 19 18 21 22
12 13 14 14 14 14 14 14 14 14 12 14 15 15 16 16 15 17 18 18 15 14 13 12 14 16 15 15 15 14 13 14 14 16 15 16 14 14 16 17 19 19 19 19 21
12 13 14 14 14 14 14 14 14 14 9 14 15 17 17 16 17 18 18 18 15 14 13 13 15 15 15 14 15 14 16 15 15 14 12 16 13 14 14 15 16 17 19 20 20
12 13 14 14 14 14 13 14 14 14 12 17 16 18 18 17 19 19 19 18 15 15 14 14 15 15 15 15 15 14 15 15 15 13 13 13 11 12 15 14 15 14 18 18 18
12 13 14 13 14 14 14 14 15 11 12 18 18 18 17 18 18 18 18 18 18 15 14 15 16 15 15 15 15 15 14 13 11 10 10 13 11 13 15 14 15 16 17 18 19
12 13 13 13 13 13 14 14 10 10 16 17 17 18 17 17 17 17 17 15 13 13 13 14 13 13 14 13 13 11 10 8 9 9 12 13 11 14 14 15 15 15 15 17 18
12 13 14 14 14 13 14 11 11 14 16 17 17 16 16 15 15 15 14 13 13 12 10 11 12 13 13 13 12 10 10 7 9 9 10 10 10 12 14 15 16 14 14 14 15
12 14 14 14 14 13 13 10 11 13 16 15 16 15 14 15 15 14 14 13 13 13 12 10 11 13 12 12 11 10 8 10 7 8 7 8 10 13 14 14 14 13 14 13 14
11 13 13 13 13 13 10 10 12 15 15 16 15 15 14 13 14 13 13 14 13 13 12 11 9 11 13 12 11 9 9 8 8 8 8 9 9 10 12 13 12 12 12 14 15
11 11 13 13 13 13 9 10 13 15 15 14 15 14 13 13 13 13 13 14 14 12 11 10 9 10 10 11 9 9 9 8 7 7 7 7 9 10 10 10 12 11 15 13 14
8 7 12 12 11 9 10 12 14 15 15 14 14 14 13 13 12 12 12 13 14 12 10 8 6 7 9 10 10 10 10 8 7 8 8 7 7 9 9 11 10 11 15 15 15
7 8 12 12 7 7 10 11 13 13 13 13 13 13 12 12 12 12 12 13 13 11 9 7 6 6 7 8 9 10 8 7 6 6 6 6 7 11 11 10 10 9 11 14 15
8 5 10 10 9 9 8 10 11 12 12 13 12 13 12 11 11 11 12 13 13 12 11 10 5 7 5 7 6 7 8 9 8 6 7 8 9 11 9 9 8 9 10 11 12
7 4 5 3 6 5 8 8 8 10 10 11 12 11 11 10 10 10 10 10 11 11 9 7 7 6 7 8 8 8 9 9 7 8 7 9 9 9 8 8 8 9 9 10 10
5 5 5 4 6 6 7 7 8 9 6 7 9 10 10 9 10 9 9 9 9 9 9 5 6 8 7 9 9 9 9 8 10 10 9 9 9 8 9 9 9 9 8 8 9
4 4 4 4 5 6 6 7 7 6 5 6 8 8 8 9 10 11 11 10 9 8 7 6 5 5 6 8 7 7 7 7 7 8 7 7 8 7 7 7 7 7 7 7 8
Height
1504 1501 1498 1495 1492 1490 1488 1487 1486 1485 1484 1483 1482 1483 1482 1482 1481 1480 1477 1479 1479 1482 1483 1485 1488 1490 1493 1493 1493 1494 1504 1510 1502 1501 1491 1485 1491 1489 1489 1488 1485 1488 1487 1479 1477
1503 1499 1496 1493 1490 1488 1487 1485 1484 1483 1483 1482 1480 1480 1479 1478 1477 1475 1476 1475 1478 1480 1483 1485 1487 1489 1490 1489 1491 1492 1504 1498 1491 1489 1490 1488 1490 1489 1488 1485 1484 1480 1481 1477 1474
1502 1498 1494 1491 1490 1487 1486 1484 1482 1482 1482 1481 1480 1478 1478 1477 1475 1473 1472 1473 1477 1479 1481 1483 1484 1484 1487 1488 1488 1488 1492 1489 1488 1488 1489 1486 1483 1488 1485 1483 1482 1481 1479 1477 1476
1502 1498 1494 1491 1488 1487 1485 1483 1482 1481 1480 1480 1479 1478 1478 1477 1478 1474 1474 1474 1475 1477 1479 1481 1483 1484 1485 1487 1486 1488 1485 1485 1482 1485 1485 1482 1479 1478 1480 1479 1479 1479 1476 1476 1474
1502 1497 1493 1491 1488 1486 1484 1483 1481 1480 1479 1479 1478 1478 1479 1478 1475 1475 1475 1475 1475 1476 1477 1480 1482 1483 1485 1483 1483 1485 1482 1482 1481 1480 1479 1478 1477 1477 1467 1475 1473 1472 1471 1470 1471
1502 1497 1494 1491 1488 1486 1485 1482 1481 1479 1479 1478 1478 1478 1479 1479 1475 1475 1476 1476 1476 1477 1479 1482 1483 1483 1483 1483 1484 1481 1480 1479 1477 1476 1476 1476 1473 1472 1460 1468 1466 1466 1465 1463 1464
1503 1498 1494 1491 1489 1487 1485 1483 1481 1480 1479 1478 1478 1478 1477 1474 1474 1475 1476 1477 1479 1480 1482 1483 1484 1485 1485 1484 1483 1481 1482 1477 1475 1474 1474 1471 1471 1462 1463 1464 1463 1461 1461 1459 1459
1503 1499 1494 1492 1490 1488 1485 1484 1482 1480 1479 1478 1477 1477 1473 1472 1473 1474 1476 1477 1478 1479 1481 1482 1483 1484 1483 1483 1481 1483 1481 1487 1473 1472 1471 1472 1472 1460 1460 1461 1458 1459 1457 1455 1453
1503 1499 1495 1492 1489 1487 1485 1483 1481 1480 1479 1478 1478 1477 1470 1470 1471 1472 1474 1476 1477 1479 1479 1479 1481 1480 1480 1485 1492 1489 1494 1486 1479 1469 1469 1470 1466 1458 1457 1455 1453 1453 1451 1451 1450
1503 1498 1494 1491 1489 1487 1485 1483 1480 1478 1478 1477 1477 1479 1470 1469 1468 1468 1471 1474 1476 1477 1477 1477 1478 1482 1486 1491 1504 1493 1490 1483 1483 1471 1468 1469 1459 1454 1452 1451 1446 1442 1441 1442 1442
1503 1498 1494 1490 1488 1486 1485 1482 1483 1480 1476 1474 1472 1469 1467 1467 1466 1467 1469 1472 1474 1476 1479 1478 1484 1488 1483 1483 1480 1483 1485 1484 1472 1464 1468 1464 1457 1450 1448 1446 1440 1434 1435 1436 1437
1502 1497 1493 1488 1486 1484 1483 1482 1482 1482 1471 1464 1462 1464 1464 1467 1468 1466 1468 1471 1471 1476 1476 1483 1485 1475 1475 1477 1479 1480 1482 1479 1466 1461 1465 1461 1457 1445 1443 1441 1437 1432 1431 1432 1433
1499 1494 1489 1485 1482 1482 1481 1481 1479 1477 1474 1459 1457 1457 1459 1463 1465 1462 1465 1466 1468 1473 1476 1483 1472 1468 1472 1473 1476 1475 1477 1472 1469 1458 1456 1455 1458 1447 1440 1437 1436 1433 1432 1433 1429
1497 1491 1484 1481 1480 1478 1479 1479 1478 1476 1482 1462 1456 1454 1457 1460 1460 1456 1460 1465 1467 1469 1473 1476 1464 1468 1469 1472 1469 1474 1463 1463 1461 1464 1474 1452 1466 1448 1440 1438 1435 1431 1428 1428 1429
1494 1488 1481 1476 1476 1476 1478 1477 1476 1476 1488 1455 1454 1453 1454 1458 1456 1453 1455 1460 1463 1463 1468 1467 1463 1465 1468 1465 1463 1469 1461 1461 1458 1463 1464 1460 1470 1448 1436 1436 1430 1426 1424 1422 1422
1490 1485 1478 1473 1472 1474 1474 1474 1476 1485 1484 1453 1451 1453 1455 1455 1454 1454 1455 1456 1456 1460 1460 1460 1460 1461 1462 1461 1461 1461 1461 1462 1465 1469 1477 1452 1463 1446 1432 1432 1424 1420 1419 1417 1414
1486 1481 1476 1473 1472 1472 1473 1474 1485 1489 1455 1457 1457 1454 1454 1456 1455 1455 1455 1458 1463 1469 1467 1462 1461 1459 1459 1462 1461 1466 1472 1488 1480 1477 1458 1448 1456 1433 1423 1421 1420 1419 1417 1410 1408
1480 1477 1473 1472 1472 1472 1472 1475 1485 1468 1461 1454 1454 1454 1458 1459 1459 1457 1458 1463 1457 1460 1470 1471 1472 1459 1458 1460 1467 1469 1474 1488 1473 1472 1459 1454 1452 1433 1419 1416 1415 1418 1413 1407 1398
1476 1472 1470 1472 1472 1472 1473 1483 1478 1469 1463 1460 1456 1458 1461 1458 1458 1459 1460 1461 1459 1459 1468 1473 1473 1459 1459 1460 1463 1468 1475 1466 1476 1469 1472 1459 1441 1426 1418 1415 1414 1413 1413 1409 1401
1474 1469 1469 1471 1473 1473 1475 1478 1472 1465 1463 1458 1461 1457 1464 1463 1463 1464 1461 1457 1459 1458 1458 1465 1475 1461 1458 1459 1459 1463 1465 1470 1470 1464 1462 1454 1447 1440 1425 1418 1416 1411 1414 1412 1406
1474 1471 1471 1471 1474 1474 1481 1477 1469 1466 1463 1462 1459 1459 1461 1464 1463 1463 1459 1456 1455 1459 1459 1463 1471 1468 1462 1461 1463 1465 1463 1470 1468 1464 1466 1465 1445 1429 1430 1425 1416 1411 1408 1409 1409
1477 1477 1474 1473 1477 1478 1478 1476 1470 1464 1464 1459 1457 1458 1460 1461 1463 1461 1460 1456 1453 1455 1461 1466 1474 1477 1468 1459 1456 1457 1458 1465 1469 1463 1459 1459 1452 1432 1429 1429 1421 1415 1408 1407 1404
1482 1479 1476 1474 1485 1484 1479 1477 1474 1470 1465 1461 1462 1460 1460 1461 1464 1460 1457 1454 1453 1455 1461 1465 1476 1484 1474 1467 1460 1459 1461 1465 1469 1469 1463 1468 1451 1427 1426 1428 1424 1420 1414 1410 1407
1488 1487 1479 1478 1483 1483 1483 1479 1476 1473 1469 1465 1464 1461 1462 1461 1460 1460 1458 1455 1454 1454 1455 1458 1473 1473 1483 1469 1469 1466 1458 1456 1459 1466 1458 1449 1438 1428 1428 1427 1422 1421 1418 1414 1410
1493 1493 1492 1490 1483 1486 1484 1480 1479 1475 1471 1467 1464 1467 1467 1466 1462 1461 1459 1459 1456 1456 1457 1461 1467 1468 1465 1461 1458 1456 1453 1450 1456 1447 1452 1437 1438 1434 1431 1428 1425 1421 1420 1417 1412
1496 1495 1493 1490 1485 1484 1482 1481 1479 1475 1479 1474 1470 1468 1466 1466 1462 1460 1459 1460 1460 1457 1458 1462 1466 1461 1462 1455 1454 1451 1449 1446 1440 1437 1437 1435 1434 1432 1429 1426 1425 1423 1421 1416 1410
1495 1495 1494 1489 1486 1484 1482 1480 1479 1481 1477 1474 1472 1469 1464 1458 1454 1453 1453 1453 1453 1456 1460 1462 1467 1471 1464 1455 1454 1453 1447 1448 1446 1441 1442 1441 1432 1430 1428 1426 1424 1421 1418 1412 1407
Wind_Speed
19 18 17 16 14 13 10 10 12 12 11 7 5 6 8 9 10 14 18 10 6 13 10 9 9 8 10 8 9 5 2 4 7 8 12 17 4 10 17 21 23 14 19 13 19
21 18 16 15 13 12 9 9 8 9 10 10 5 5 7 9 13 13 5 7 12 13 11 7 7 9 6 6 6 5 4 7 5 7 6 18 9 13 10 24 25 34 18 16 21
21 20 16 13 12 10 9 8 7 6 8 9 8 7 5 8 7 6 5 9 14 11 9 4 4 4 5 5 6 6 6 5 6 13 18 19 19 17 8 13 23 22 31 18 15
23 20 17 13 11 10 8 8 7 7 6 7 8 8 5 5 2 3 6 7 8 9 8 6 5 2 1 4 7 3 7 11 15 22 23 8 27 16 17 23 31 32 30 17 22
25 21 17 14 11 10 8 8 7 6 6 6 5 5 6 5 4 1 3 5 6 6 9 7 4 2 3 3 1 5 5 15 22 26 26 27 20 18 33 29 35 34 34 20 27
25 22 17 14 11 9 9 8 8 6 5 4 3 4 4 2 2 3 4 2 5 8 8 6 1 6 6 4 3 2 8 10 9 15 15 9 18 15 27 22 27 28 23 16 20
26 23 18 14 11 9 8 9 7 7 5 3 3 4 8 10 3 8 3 1 6 6 5 3 4 2 1 4 4 6 5 7 4 4 4 5 7 13 17 12 16 18 18 20 19
28 24 19 13 11 10 7 7 9 8 6 4 3 5 7 5 11 9 7 6 6 5 7 5 6 7 3 5 7 5 2 3 4 1 6 5 11 13 24 15 19 22 24 25 25
30 25 21 14 9 9 9 9 10 8 5 5 5 5 5 8 10 9 11 7 7 6 7 10 10 4 1 3 5 5 5 6 7 6 4 6 11 7 17 20 19 25 28 29 31
31 27 20 16 10 8 10 12 9 6 5 6 9 7 4 4 8 7 11 9 9 9 3 3 3 2 4 4 4 5 5 6 5 7 4 8 18 10 17 13 26 28 30 31 31
32 29 22 16 11 8 8 8 9 2 9 13 15 17 20 9 3 9 12 12 12 6 2 2 2 6 10 8 8 5 5 12 13 15 4 13 17 11 13 16 21 28 24 30 31
31 31 28 16 11 6 7 8 11 11 12 19 21 26 23 18 6 10 13 12 7 6 3 4 7 10 5 6 7 8 12 14 12 14 6 9 11 14 6 8 20 25 22 27 28
33 32 30 21 12 9 6 7 12 9 4 10 7 13 17 12 11 15 18 18 5 5 6 7 9 1 4 7 8 7 6 9 12 7 5 2 7 8 5 7 13 11 8 12 22
34 33 31 24 9 10 7 6 8 6 3 5 4 4 9 7 5 19 22 15 4 10 7 6 11 10 11 6 3 3 4 7 7 3 7 3 11 10 7 7 5 14 13 16 14
32 34 31 22 9 7 3 5 6 1 3 2 3 1 7 9 2 3 18 22 9 9 7 11 5 6 6 8 3 7 4 5 4 4 2 3 1 9 4 7 10 10 17 19 23
31 31 32 16 8 6 3 7 1 3 3 1 4 4 4 6 3 4 6 15 15 6 4 6 0 2 3 2 4 3 3 2 1 3 2 6 7 10 12 8 5 5 15 23 29
34 27 26 12 1 3 4 2 3 3 5 3 4 2 4 2 2 4 4 4 5 3 3 0 2 2 2 2 2 8 6 4 4 2 11 5 4 17 6 8 6 5 19 26 30
34 24 15 3 5 4 3 3 2 3 3 0 1 2 3 2 2 3 2 2 5 4 2 2 5 2 2 3 5 1 5 4 6 4 7 5 7 6 5 3 4 12 17 21 23
29 20 7 3 4 2 1 2 4 2 7 7 4 2 1 1 3 7 4 1 1 3 3 2 4 3 1 3 7 4 5 4 3 1 2 4 7 10 6 1 3 10 21 24 17
31 17 11 7 3 3 4 3 3 3 7 4 3 1 1 2 2 4 2 2 4 2 3 3 3 4 3 1 5 4 3 2 2 4 4 4 4 8 10 6 4 5 5 11 21
19 7 7 6 5 3 1 3 4 13 8 4 1 1 2 1 1 3 4 2 2 3 3 3 3 4 3 2 3 3 2 2 1 3 4 1 4 4 4 9 8 7 5 4 10
14 3 10 6 3 2 2 8 11 6 13 4 1 1 3 2 2 3 3 3 7 6 3 2 4 3 8 7 8 4 3 5 2 3 3 2 5 6 10 16 13 17 20 15 12
17 7 11 3 3 3 5 7 11 13 9 5 5 4 2 1 2 4 2 7 6 5 6 6 1 3 8 5 5 2 2 2 2 1 4 1 5 1 3 5 14 16 21 15 17
9 4 6 9 6 3 3 3 9 10 9 6 3 4 4 2 3 3 2 2 8 2 7 9 4 6 6 6 4 6 6 6 5 3 3 8 12 9 5 6 12 20 21 18 16
7 1 3 4 3 6 3 2 11 7 8 12 3 8 5 3 3 3 2 4 5 4 3 3 5 5 7 9 8 9 12 10 8 14 8 9 10 4 6 5 9 19 24 21 21
5 5 5 8 11 3 2 2 8 5 2 6 5 10 7 5 6 5 4 4 5 1 2 1 3 1 4 10 7 9 5 9 7 5 9 13 12 4 8 9 12 19 22 24 28
4 2 3 5 5 4 3 2 7 7 7 12 14 12 13 14 16 16 14 10 8 7 4 3 4 2 4 4 8 3 1 2 4 5 5 5 4 6 9 8 12 20 26 28 32
Wind_Direction
348 344 341 332 331 323 314 308 306 300 290 282 295 313 299 296 287 275 267 258 238 204 171 171 191 206 210 220 201 180 121 224 214 194 248 283 302 295 303 288 300 301 301 216 165
352 349 344 338 330 326 318 308 305 300 294 289 298 289 298 308 304 290 286 218 170 185 186 197 214 211 193 207 191 159 175 226 219 231 268 279 271 293 305 295 294 304 317 231 175
360 353 351 345 334 333 325 315 306 294 292 297 298 283 304 321 333 19 61 180 171 192 194 200 185 156 203 182 202 194 223 214 243 245 255 270 285 282 269 280 280 289 301 188 191
1 360 355 351 346 337 335 323 310 301 289 294 298 298 306 315 107 74 76 116 156 178 180 159 179 168 227 202 230 250 252 256 268 261 256 251 275 270 262 263 281 289 286 273 217
2 1 360 357 352 350 350 342 329 317 303 291 287 290 299 300 272 130 114 108 129 145 147 146 156 195 208 228 235 205 253 269 275 276 271 273 268 266 267 273 283 283 275 256 218
4 1 1 360 2 4 358 359 345 335 323 304 283 277 263 284 112 176 189 196 153 148 166 181 224 310 290 265 171 273 274 275 288 287 279 260 268 267 274 285 272 268 259 258 213
2 1 358 0 3 2 7 4 2 347 339 320 295 276 267 236 165 165 171 340 214 204 192 251 295 250 294 292 270 264 285 315 233 247 266 300 286 256 286 256 232 246 257 266 235
4 356 355 354 355 355 349 353 351 349 336 313 290 296 259 161 199 196 187 184 173 198 248 287 283 279 211 272 342 1 83 301 274 257 262 173 259 278 292 238 238 251 261 260 257
3 357 350 346 345 351 348 335 314 316 317 306 288 298 261 197 214 229 215 197 197 247 265 275 293 252 356 66 4 356 261 274 306 210 223 191 270 259 285 288 264 261 258 257 250
2 359 350 341 332 335 337 335 329 293 271 302 266 299 234 156 332 232 218 217 250 276 295 241 264 61 35 71 250 268 297 287 286 287 178 271 274 273 289 288 284 290 265 252 241
360 1 353 337 323 316 333 344 350 309 288 254 265 267 277 284 335 207 207 202 228 228 185 1 64 236 235 208 232 238 260 264 279 278 278 274 272 276 275 292 294 299 254 237 240
356 354 352 329 308 299 317 330 356 295 299 282 260 253 259 263 298 239 194 187 181 215 118 9 253 245 229 234 231 245 259 274 273 261 194 252 260 278 244 260 285 287 256 230 224
351 348 344 337 285 273 283 4 359 344 280 294 246 234 235 226 223 236 203 197 176 207 190 193 238 284 260 281 275 258 239 270 265 276 258 252 283 284 277 279 281 279 288 270 222
346 342 339 340 287 245 236 325 337 339 30 274 227 218 176 193 255 245 211 199 207 220 164 233 253 235 260 242 230 265 282 280 267 228 261 154 275 279 273 272 259 274 289 293 276
340 341 335 333 266 232 245 287 313 263 346 154 165 201 186 172 281 232 213 202 199 207 133 228 198 197 241 253 177 235 303 285 300 262 8 239 202 281 248 271 267 279 295 306 304
339 339 336 333 304 207 290 314 214 45 253 74 123 161 119 230 273 346 189 213 234 221 229 232 315 114 225 264 226 322 314 292 62 131 244 250 187 271 270 238 232 232 296 306 298
339 332 336 333 89 175 287 297 49 173 321 53 41 338 204 296 82 22 338 360 216 188 225 356 253 295 198 24 71 49 40 318 292 250 252 169 213 245 283 276 249 278 312 310 287
338 326 329 319 209 232 261 66 206 249 19 199 238 307 114 21 308 314 51 3 13 71 96 163 313 16 30 129 206 162 167 193 271 248 275 339 242 263 256 328 74 36 14 347 309
338 330 349 182 175 337 17 110 219 253 351 315 330 355 35 44 29 24 343 155 66 48 133 152 265 293 156 190 145 188 198 161 223 250 297 242 300 293 293 235 8 48 32 31 32
338 344 60 184 218 342 70 237 254 297 325 298 238 162 225 41 76 23 264 210 157 215 145 190 270 254 297 150 237 173 142 245 250 225 210 264 254 247 326 315 318 360 46 20 37
347 0 21 153 218 358 118 258 282 317 351 307 267 208 79 101 270 220 252 313 167 147 94 130 128 285 355 203 208 325 268 234 263 236 229 284 255 210 289 297 311 286 281 24 12
359 357 354 170 37 11 20 323 309 321 340 296 203 124 169 186 248 248 241 230 230 151 115 44 132 261 251 290 275 200 221 161 250 292 273 286 273 40 11 322 322 311 313 292 284
345 318 13 143 75 351 329 329 331 342 326 347 13 2 2 163 263 217 306 320 150 145 166 180 128 340 336 351 353 13 180 154 85 337 236 204 269 8 6 315 342 348 346 289 259
359 353 342 48 72 18 8 320 314 326 322 350 326 7 356 269 221 266 262 358 353 181 153 136 142 173 205 226 203 282 261 243 172 214 241 230 273 301 328 331 333 344 349 331 299
9 354 7 317 325 331 278 276 292 306 336 335 8 6 333 287 284 239 18 344 358 70 102 117 200 196 239 250 250 265 277 286 217 237 227 262 271 310 307 305 316 330 336 334 328
1 354 338 295 295 314 303 318 285 314 310 297 331 330 298 248 229 245 184 189 234 9 83 34 250 225 270 264 267 283 299 309 19 324 250 257 274 225 298 313 313 319 324 316 312
336 279 290 288 308 300 262 265 314 323 283 247 306 309 297 269 259 239 227 218 217 180 173 178 153 113 269 310 306 302 104 289 270 248 260 254 253 328 318 306 305 302 302 294 295